G0AMO Weather Reports


time (UTC)temp
C
wind
direction
speed
KPH
gust
KPH
rain 1hr
cm
rain 24hr
cm
rain mn
cm
humidity
%
barometer
mb
20260510180004 12 44 20.9 33.8 0.00 0.00 0.00 60 1015.2
20260510175503 12 34 14.5 40.2 0.00 0.00 0.00 59 1014.2
20260510175004 12 11 16.1 45.1 0.00 0.00 0.00 60 1015.2
20260510174504 12 53 20.9 45.1 0.00 0.00 0.00 59 1015.2
20260510174004 12 12 8.0 25.7 0.00 0.00 0.00 59 1015.2
20260510173505 12 38 8.0 48.3 0.00 0.00 0.00 59 1015.2
20260510172503 12 80 19.3 45.1 0.00 0.00 0.00 60 1015.2
20260510172004 12 34 14.5 24.1 0.00 0.00 0.00 60 1014.6
20260510171503 13 358 9.7 12.9 0.00 0.00 0.00 60 1014.6
20260510170504 12 69 19.3 37.0 0.00 0.00 0.00 60 1014.6
20260510170005 12 18 14.5 48.3 0.00 0.00 0.00 61 1015.2
20260510165505 12 96 12.9 48.3 0.00 0.00 0.00 60 1015.6
20260510164505 12 69 9.7 29.0 0.00 0.00 0.00 62 1014.9
20260510164004 12 108 20.9 29.0 0.00 0.00 0.00 63 1015.6
20260510163504 12 113 8.0 37.0 0.00 0.00 0.00 64 1014.9
20260510163004 12 94 12.9 37.0 0.00 0.00 0.00 63 1015.6
20260510162505 12 51 16.1 25.7 0.00 0.00 0.00 64 1015.9
20260510162004 12 39 9.7 25.7 0.00 0.00 0.00 63 1015.9
20260510161504 12 90 12.9 25.7 0.00 0.00 0.00 65 1015.9
20260510161003 12 17 14.5 40.2 0.00 0.00 0.00 65 1015.9
20260510160504 12 71 25.7 40.2 0.00 0.00 0.00 65 1015.9
20260510160004 12 107 16.1 29.0 0.00 0.00 0.00 65 1015.9
20260510155005 12 92 8.0 33.8 0.00 0.00 0.00 66 1015.6
20260510154505 12 58 19.3 37.0 0.00 0.00 0.00 67 1016.3
20260510153504 12 15 4.8 40.2 0.00 0.00 0.00 67 1016.3
20260510153004 12 32 22.5 40.2 0.00 0.00 0.00 67 1016.3
20260510152505 12 44 22.5 33.8 0.00 0.00 0.00 67 1016.3
20260510151005 12 53 20.9 45.1 0.00 0.00 0.00 69 1016.6
20260510150004 12 30 16.1 40.2 0.00 0.00 0.00 68 1016.6
20260510145504 12 106 16.1 40.2 0.00 0.00 0.00 68 1016.6
20260510145004 12 57 22.5 33.8 0.00 0.00 0.00 68 1016.6
20260510144004 12 40 8.0 24.1 0.00 0.00 0.00 69 1016.3
20260510143503 12 31 14.5 24.1 0.00 0.00 0.00 68 1016.3
20260510143004 12 58 11.3 12.9 0.00 0.00 0.00 68 1016.6
20260510142503 12 83 9.7 29.0 0.00 0.00 0.00 68 1016.6
20260510142005 12 68 16.1 29.0 0.00 0.00 0.00 69 1017.3
20260510140005 12 30 12.9 33.8 0.00 0.00 0.00 69 1017.3
20260510135503 12 35 12.9 37.0 0.00 0.00 0.00 69 1017.3
20260510135004 12 129 19.3 37.0 0.00 0.00 0.00 70 1017.3
20260510134503 12 85 11.3 33.8 0.00 0.00 0.00 70 1016.7
20260510133004 12 42 12.9 48.3 0.00 0.00 0.00 69 1017.4
20260510132504 12 46 11.3 40.2 0.00 0.00 0.00 69 1016.9
20260510131504 12 58 8.0 33.8 0.00 0.00 0.00 68 1016.9
20260510131005 13 57 22.5 37.0 0.00 0.00 0.00 68 1017.3
20260510130503 13 50 16.1 37.0 0.00 0.00 0.00 68 1017.0
20260510130004 12 45 16.1 33.8 0.00 0.00 0.00 69 1016.8
20260510125004 12 55 14.5 37.0 0.00 0.00 0.00 70 1017.5
20260510124504 12 27 17.7 37.0 0.00 0.00 0.00 70 1017.0
20260510124004 13 79 14.5 37.0 0.00 0.00 0.00 70 1017.6
20260510123504 12 52 17.7 40.2 0.00 0.00 0.00 70 1017.6
20260510123004 12 23 16.1 40.2 0.00 0.00 0.00 71 1017.6
20260510122503 12 22 14.5 48.3 0.00 0.00 0.00 72 1016.9
20260510122005 12 31 20.9 48.3 0.00 0.00 0.00 72 1017.6
20260510121504 12 24 17.7 45.1 0.00 0.00 0.00 71 1016.9
20260510121003 12 37 19.3 45.1 0.00 0.00 0.00 71 1017.6
20260510120004 13 21 22.5 37.0 0.00 0.00 0.00 69 1017.6
20260510115505 13 56 9.7 20.9 0.00 0.00 0.00 69 1016.9
20260510115004 13 49 14.5 40.2 0.00 0.00 0.00 69 1016.9
20260510114504 13 45 12.9 40.2 0.00 0.00 0.00 68 1017.3
20260510114005 13 93 14.5 33.8 0.00 0.00 0.00 66 1017.6
20260510113505 13 33 19.3 37.0 0.00 0.00 0.00 66 1017.3
20260510113003 13 28 16.1 37.0 0.00 0.00 0.00 66 1017.9
20260510111505 13 18 20.9 40.2 0.00 0.00 0.00 67 1017.6
20260510111005 13 37 16.1 56.3 0.00 0.00 0.00 68 1017.9
20260510110504 13 89 32.2 56.3 0.00 0.00 0.00 67 1017.9
20260510110005 13 53 8.0 45.1 0.00 0.00 0.00 68 1017.9
20260510105504 12 32 22.5 45.1 0.00 0.00 0.00 69 1017.9
20260510104004 13 66 24.1 56.3 0.00 0.00 0.00 65 1017.9
20260510103505 13 61 29.0 56.3 0.00 0.00 0.00 64 1018.3
20260510101504 13 127 11.3 24.1 0.00 0.00 0.00 66 1017.9
20260510100004 13 38 25.7 56.3 0.00 0.00 0.00 65 1017.9
20260510095504 13 69 11.3 24.1 0.00 0.00 0.00 65 1017.9
20260510095004 13 66 20.9 24.1 0.00 0.00 0.00 66 1018.3
20260510094003 12 62 22.5 40.2 0.00 0.00 0.00 67 1018.3
20260510093504 12 26 22.5 40.2 0.00 0.00 0.00 67 1018.3
20260510093004 12 19 16.1 37.0 0.00 0.00 0.00 67 1017.9
20260510092504 13 118 24.1 37.0 0.00 0.00 0.00 67 1018.3
20260510092004 12 90 14.5 45.1 0.00 0.00 0.00 69 1018.3
20260510091504 12 43 22.5 59.5 0.00 0.00 0.00 69 1018.3
20260510091004 12 50 11.3 59.5 0.00 0.00 0.00 70 1018.6
20260510090504 12 74 24.1 59.5 0.00 0.00 0.00 69 1018.3
20260510090004 12 62 25.7 45.1 0.00 0.00 0.00 70 1018.6
20260510085504 12 75 12.9 45.1 0.00 0.00 0.00 70 1018.6
20260510085003 12 33 12.9 29.0 0.00 0.00 0.00 71 1018.6
20260510084504 12 14 16.1 29.0 0.00 0.00 0.00 71 1018.6
20260510084004 11 29 20.9 29.0 0.00 0.00 0.00 72 1018.3
20260510083504 11 101 16.1 40.2 0.00 0.00 0.00 74 1018.6
20260510083005 11 89 20.9 40.2 0.00 0.00 0.00 74 1019.0
20260510082504 11 82 24.1 40.2 0.00 0.00 0.00 74 1018.6
20260510082005 11 57 24.1 40.2 0.00 0.00 0.00 74 1019.0
20260510081005 11 48 24.1 37.0 0.00 0.00 0.00 74 1019.3
20260510080004 10 56 20.9 51.5 0.00 0.00 0.00 77 1019.0
20260510074004 10 65 33.8 48.3 0.00 0.00 0.00 78 1019.0
20260510073004 10 110 20.9 40.2 0.00 0.00 0.00 80 1019.0
20260510072504 10 123 22.5 40.2 0.00 0.00 0.00 80 1019.0
20260510072003 10 112 8.0 33.8 0.00 0.00 0.00 82 1018.6
20260510071503 9 115 11.3 14.5 0.00 0.00 0.00 83 1018.6
20260510071006 9 47 9.7 14.5 0.00 0.00 0.00 84 1018.0
20260510070504 9 73 12.9 33.8 0.00 0.00 0.00 84 1018.5
20260510070004 8 114 14.5 33.8 0.00 0.00 0.00 85 1018.6
20260510065505 8 38 11.3 29.0 0.00 0.00 0.00 85 1018.6
20260510065004 8 47 11.3 37.0 0.00 0.00 0.00 85 1018.4
20260510064505 8 61 9.7 37.0 0.00 0.00 0.00 86 1018.5
20260510064005 8 47 11.3 25.7 0.00 0.00 0.00 86 1017.9
20260510063505 8 36 8.0 22.5 0.00 0.00 0.00 86 1018.0
20260510062504 8 126 9.7 22.5 0.00 0.00 0.00 86 1018.6
20260510062004 8 66 9.7 16.1 0.00 0.00 0.00 86 1018.2
20260510061503 8 35 12.9 25.7 0.00 0.00 0.00 86 1017.9
20260510061005 8 1 9.7 25.7 0.00 0.00 0.00 86 1018.6
20260510060503 8 1 11.3 29.0 0.00 0.00 0.00 86 1018.6
20260510060005 8 0 12.9 29.0 0.00 0.00 0.00 87 1018.4
20260510055505 8 71 9.7 25.7 0.00 0.00 0.00 87 1017.4
20260510055004 8 79 8.0 25.7 0.00 0.00 0.00 87 1018.3
20260510054505 8 62 9.7 25.7 0.00 0.00 0.00 87 1018.6
20260510054004 8 54 9.7 25.7 0.00 0.00 0.00 88 1017.3
20260510053504 8 37 9.7 33.8 0.00 0.00 0.00 88 1018.6
20260510053004 8 35 14.5 33.8 0.00 0.00 0.00 88 1018.3
20260510052504 8 66 16.1 29.0 0.00 0.00 0.00 88 1018.6
20260510052004 8 70 12.9 22.5 0.00 0.00 0.00 88 1017.3
20260510051505 8 22 11.3 22.5 0.00 0.00 0.00 88 1017.6
20260510051004 8 33 16.1 22.5 0.00 0.00 0.00 88 1018.6
20260510050004 8 16 9.7 20.9 0.00 0.00 0.00 88 1017.3
20260510045505 8 19 8.0 37.0 0.00 0.00 0.00 88 1017.6
20260510045003 8 20 14.5 37.0 0.00 0.00 0.00 88 1018.6
20260510044504 8 37 9.7 25.7 0.00 0.00 0.00 88 1018.3
20260510044003 8 90 8.0 33.8 0.00 0.00 0.00 88 1017.3
20260510043504 8 50 11.3 33.8 0.00 0.00 0.00 88 1018.6
20260510043004 8 34 8.0 11.3 0.00 0.00 0.00 88 1017.3
20260510042504 8 0 4.8 11.3 0.00 0.00 0.00 88 1017.3
20260510041504 8 32 14.5 33.8 0.00 0.00 0.00 88 1018.3
20260510041003 8 35 20.9 33.8 0.00 0.00 0.00 88 1018.3
20260510040504 8 26 12.9 20.9 0.00 0.00 0.00 88 1017.3
20260510040005 8 25 9.7 25.7 0.00 0.00 0.00 87 1017.3
20260510035504 8 36 16.1 25.7 0.00 0.00 0.00 87 1018.6
20260510035006 8 13 11.3 16.1 0.00 0.00 0.00 87 1017.3
20260510034004 8 20 11.3 37.0 0.00 0.00 0.00 87 1017.6
20260510033504 8 24 16.1 37.0 0.00 0.00 0.00 87 1018.6
20260510033003 8 43 25.7 37.0 0.00 0.00 0.00 87 1018.6
20260510032504 8 15 11.3 37.0 0.00 0.00 0.00 87 1017.6
20260510032004 8 16 12.9 37.0 0.00 0.00 0.00 87 1019.0
20260510031504 8 82 11.3 40.2 0.00 0.00 0.00 87 1017.6
20260510030504 8 359 20.9 40.2 0.00 0.00 0.00 87 1019.0
20260510030004 8 44 22.5 33.8 0.00 0.00 0.00 87 1018.6
20260510025503 8 32 12.9 33.8 0.00 0.00 0.00 87 1017.9
20260510024504 8 339 20.9 40.2 0.00 0.00 0.00 86 1019.0
20260510023505 8 21 11.3 45.1 0.00 0.00 0.00 85 1017.6
20260510023005 8 46 32.2 45.1 0.00 0.00 0.00 85 1018.6
20260510022504 8 46 19.3 48.3 0.00 0.00 0.00 85 1018.6
20260510022005 9 61 24.1 48.3 0.00 0.00 0.00 85 1018.6
20260510021504 9 26 24.1 33.8 0.00 0.00 0.00 85 1018.6
20260510021005 9 33 11.3 37.0 0.00 0.00 0.00 85 1017.6
20260510020504 9 355 12.9 37.0 0.00 0.00 0.00 86 1018.6
20260510020004 9 48 14.5 29.0 0.00 0.00 0.00 86 1018.3
20260510015505 9 51 12.9 27.4 0.00 0.00 0.00 86 1017.6
20260510014504 9 38 19.3 29.0 0.00 0.00 0.00 85 1018.6
20260510014004 9 24 20.9 29.0 0.00 0.00 0.00 84 1018.6
20260510013004 9 42 11.3 25.7 0.00 0.00 0.00 83 1017.6
20260510012504 9 44 14.5 25.7 0.00 0.00 0.00 82 1019.0
20260510011504 10 32 14.5 37.0 0.00 0.00 0.00 78 1018.6
20260510011004 10 42 20.9 37.0 0.00 0.00 0.00 77 1018.6
20260510010504 10 340 25.7 37.0 0.00 0.00 0.00 75 1018.3
20260510010004 10 23 16.1 24.1 0.00 0.00 0.00 74 1017.6
20260510005504 10 38 9.7 33.8 0.00 0.00 0.00 73 1017.6
20260510005004 10 34 12.9 33.8 0.00 0.00 0.00 72 1018.6
20260510004504 10 13 19.3 25.7 0.00 0.00 0.00 71 1018.6
20260510004004 10 30 4.8 37.0 0.00 0.00 0.00 69 1017.9
20260510003505 10 46 20.9 37.0 0.00 0.00 0.00 67 1018.6
20260510003005 10 17 19.3 25.7 0.00 0.00 0.00 66 1018.6
20260510002503 11 33 19.3 25.7 0.00 0.00 0.00 65 1017.6
20260510002004 11 30 3.2 25.7 0.00 0.00 0.00 65 1019.0
20260510001504 11 19 4.8 25.7 0.00 0.00 0.00 64 1019.0
20260510001004 11 51 11.3 12.9 0.00 0.00 0.00 64 1017.9
20260510000505 11 53 9.7 12.9 0.00 0.00 0.00 64 1017.9
20260510000004 12 15 4.8 22.5 0.00 0.00 0.00 63 1017.9
20260509235504 12 82 12.9 22.5 0.00 0.00 0.00 61 1018.6
20260509235004 12 60 4.8 22.5 0.00 0.00 0.00 59 1018.6
20260509234505 12 63 9.7 22.5 0.00 0.00 0.00 59 1018.3
20260509234004 12 25 8.0 19.3 0.00 0.00 0.00 58 1017.6
20260509233505 12 68 11.3 20.9 0.00 0.00 0.00 57 1019.0
20260509233004 12 53 12.9 20.9 0.00 0.00 0.00 57 1017.6
20260509232504 12 61 4.8 8.0 0.00 0.00 0.00 57 1017.6
20260509232005 12 64 4.8 8.0 0.00 0.00 0.00 58 1017.6
20260509231004 12 61 19.3 29.0 0.00 0.00 0.00 58 1018.3
20260509230505 12 39 8.0 29.0 0.00 0.00 0.00 60 1018.6
20260509225005 12 79 1.6 11.3 0.00 0.00 0.00 59 1018.3
20260509224504 12 94 1.6 11.3 0.00 0.00 0.00 60 1018.4
20260509224004 12 85 6.4 19.3 0.00 0.00 0.00 59 1018.3
20260509223504 12 81 4.8 19.3 0.00 0.00 0.00 59 1017.8
20260509223004 12 59 9.7 19.3 0.00 0.00 0.00 59 1017.7
20260509222504 12 52 4.8 19.3 0.00 0.00 0.00 58 1017.9
20260509221505 12 84 4.8 12.9 0.00 0.00 0.00 59 1017.3
20260509221005 12 69 3.2 11.3 0.00 0.00 0.00 60 1017.4
20260509220506 12 55 3.2 11.3 0.00 0.00 0.00 61 1017.8
20260509220004 12 32 3.2 8.0 0.00 0.00 0.00 60 1017.4
20260509215003 13 32 3.2 11.3 0.00 0.00 0.00 58 1017.7
20260509214505 13 81 3.2 11.3 0.00 0.00 0.00 58 1018.3
20260509214004 13 82 1.6 3.2 0.00 0.00 0.00 57 1017.3
20260509213504 13 100 1.6 11.3 0.00 0.00 0.00 56 1017.6
20260509213004 13 63 4.8 19.3 0.00 0.00 0.00 56 1018.3
20260509212505 13 59 4.8 19.3 0.00 0.00 0.00 55 1017.9
20260509211504 13 48 8.0 22.5 0.00 0.00 0.00 55 1018.3
20260509210004 14 105 4.8 19.3 0.00 0.00 0.00 55 1017.9
20260509205504 14 46 8.0 16.1 0.00 0.00 0.00 54 1017.6
20260509205005 14 78 8.0 19.3 0.00 0.00 0.00 54 1017.3
20260509204004 15 42 3.2 14.5 0.00 0.00 0.00 54 1017.6
20260509203504 15 35 8.0 14.5 0.00 0.00 0.00 53 1017.3
20260509203004 15 56 4.8 8.0 0.00 0.00 0.00 52 1017.6
20260509202504 15 78 4.8 8.0 0.00 0.00 0.00 53 1017.6
20260509202004 15 74 0.0 11.3 0.00 0.00 0.00 53 1016.9
20260509201504 15 50 8.0 11.3 0.00 0.00 0.00 52 1017.3
20260509201004 16 66 3.2 8.0 0.00 0.00 0.00 52 1016.6
20260509200505 16 86 4.8 8.0 0.00 0.00 0.00 52 1016.6
20260509200005 16 56 3.2 19.3 0.00 0.00 0.00 51 1016.6
20260509195505 16 96 3.2 19.3 0.00 0.00 0.00 50 1017.3
20260509195004 16 102 4.8 19.3 0.00 0.00 0.00 50 1017.3
20260509194504 16 74 4.8 14.5 0.00 0.00 0.00 51 1016.6
20260509194004 17 60 9.7 14.5 0.00 0.00 0.00 51 1017.3
20260509193503 17 98 12.9 14.5 0.00 0.00 0.00 50 1016.9
20260509193004 17 44 3.2 19.3 0.00 0.00 0.00 51 1016.3
20260509192504 17 73 11.3 19.3 0.00 0.00 0.00 51 1016.6
20260509192004 17 99 3.2 4.8 0.00 0.00 0.00 51 1016.3
20260509191504 17 121 3.2 4.8 0.00 0.00 0.00 50 1016.3
20260509190505 17 119 4.8 14.5 0.00 0.00 0.00 51 1016.6
20260509190004 17 96 0.0 8.0 0.00 0.00 0.00 51 1016.9
20260509184504 18 34 4.8 22.5 0.00 0.00 0.00 49 1016.3
20260509183504 18 26 8.0 11.3 0.00 0.00 0.00 48 1016.6
20260509183004 18 47 8.0 12.9 0.00 0.00 0.00 48 1016.3
20260509182504 18 32 9.7 29.0 0.00 0.00 0.00 47 1015.9
20260509182005 18 87 8.0 29.0 0.00 0.00 0.00 46 1016.3
20260509181004 19 52 12.9 19.3 0.00 0.00 0.00 46 1016.3
20260509180504 19 102 9.7 19.3 0.00 0.00 0.00 47 1016.3